Time,TemperatureF,DewpointF,PressureIn,WindDirection,WindDirectionDegrees,WindSpeedMPH,WindSpeedGustMPH,Humidity,HourlyPrecipIn,Conditions,Clouds,dailyrainin,SoftwareType,DateUTC
2013-02-18 00:00:00,16.2,5.1,30.04,West,270,3.7,-999.0,61,-99.99,,,0.00,Acu-Link.com,2013-02-18 05:00:00,
2013-02-18 00:16:00,16.3,5.2,30.06,SW,225,3.2,-999.0,61,-99.99,,,0.00,Acu-Link.com,2013-02-18 05:16:00,
2013-02-18 00:33:00,16.3,5.6,30.05,SW,225,2.7,-999.0,62,-99.99,,,0.00,Acu-Link.com,2013-02-18 05:33:00,
2013-02-18 00:48:00,16.0,5.7,30.06,NNW,337,2.2,-999.0,63,-99.99,,,0.00,Acu-Link.com,2013-02-18 05:48:00,
2013-02-18 01:11:00,15.6,5.6,30.06,South,180,2.7,-999.0,64,-99.99,,,0.00,Acu-Link.com,2013-02-18 06:11:00,
2013-02-18 01:26:00,16.0,5.7,30.06,SW,225,2.7,-999.0,63,-99.99,,,0.00,Acu-Link.com,2013-02-18 06:26:00,
2013-02-18 01:42:00,15.1,5.1,30.06,SW,225,3.2,-999.0,64,-99.99,,,0.00,Acu-Link.com,2013-02-18 06:42:00,
2013-02-18 01:59:00,14.9,5.0,30.05,WSW,247,1.7,-999.0,64,-99.99,,,0.00,Acu-Link.com,2013-02-18 06:59:00,
2013-02-18 02:14:00,14.5,4.9,30.07,WSW,247,2.2,-999.0,65,-99.99,,,0.00,Acu-Link.com,2013-02-18 07:14:00,
2013-02-18 02:29:00,14.9,4.6,30.08,SW,225,2.2,-999.0,63,-99.99,,,0.00,Acu-Link.com,2013-02-18 07:29:00,
2013-02-18 02:44:00,14.7,4.4,30.09,SW,225,3.2,-999.0,63,-99.99,,,0.00,Acu-Link.com,2013-02-18 07:44:00,
2013-02-18 02:59:00,14.4,4.5,30.10,SSW,202,2.2,-999.0,64,-99.99,,,0.00,Acu-Link.com,2013-02-18 07:59:00,
2013-02-18 03:15:00,14.4,4.8,30.11,WSW,247,2.2,-999.0,65,-99.99,,,0.00,Acu-Link.com,2013-02-18 08:15:00,
2013-02-18 03:30:00,14.5,4.9,30.10,WSW,247,2.7,-999.0,65,-99.99,,,0.00,Acu-Link.com,2013-02-18 08:30:00,
2013-02-18 03:45:00,14.5,4.9,30.10,SW,225,2.7,-999.0,65,-99.99,,,0.00,Acu-Link.com,2013-02-18 08:45:00,
2013-02-18 04:00:00,14.0,4.8,30.10,WSW,247,1.1,-999.0,66,-99.99,,,0.00,Acu-Link.com,2013-02-18 09:00:00,
2013-02-18 04:18:00,14.0,5.1,30.10,West,270,1.7,-999.0,67,-99.99,,,0.00,Acu-Link.com,2013-02-18 09:18:00,
2013-02-18 04:35:00,13.3,4.7,30.11,WNW,292,1.7,-999.0,68,-99.99,,,0.00,Acu-Link.com,2013-02-18 09:35:00,
2013-02-18 04:50:00,13.1,5.2,30.11,SW,225,0.0,-999.0,70,-99.99,,,0.00,Acu-Link.com,2013-02-18 09:50:00,
2013-02-18 05:05:00,12.9,4.7,30.13,SW,225,1.7,-999.0,69,-99.99,,,0.00,Acu-Link.com,2013-02-18 10:05:00,
2013-02-18 05:20:00,12.7,5.1,30.14,SSW,202,0.0,-999.0,71,-99.99,,,0.00,Acu-Link.com,2013-02-18 10:20:00,
2013-02-18 05:35:00,11.8,4.2,30.15,West,270,0.0,-999.0,71,-99.99,,,0.00,Acu-Link.com,2013-02-18 10:35:00,
2013-02-18 05:51:00,11.5,4.8,30.16,WNW,292,1.1,-999.0,74,-99.99,,,0.00,Acu-Link.com,2013-02-18 10:51:00,
2013-02-18 06:06:00,11.7,5.0,30.16,SW,225,0.0,-999.0,74,-99.99,,,0.00,Acu-Link.com,2013-02-18 11:06:00,
2013-02-18 06:21:00,11.3,4.4,30.15,West,270,0.0,-999.0,73,-99.99,,,0.00,Acu-Link.com,2013-02-18 11:21:00,
2013-02-18 06:36:00,10.6,4.0,30.16,WNW,292,0.0,-999.0,74,-99.99,,,0.00,Acu-Link.com,2013-02-18 11:36:00,
2013-02-18 07:22:00,10.0,4.0,30.17,WNW,292,0.0,-999.0,76,-99.99,,,0.00,Acu-Link.com,2013-02-18 12:22:00,
2013-02-18 07:38:00,11.1,4.8,30.18,WNW,292,0.0,-999.0,75,-99.99,,,0.00,Acu-Link.com,2013-02-18 12:38:00,
2013-02-18 07:54:00,12.9,5.6,30.19,WNW,292,0.0,-999.0,72,-99.99,,,0.00,Acu-Link.com,2013-02-18 12:54:00,
2013-02-18 08:12:00,15.8,7.5,30.19,South,180,1.1,-999.0,69,-99.99,,,0.00,Acu-Link.com,2013-02-18 13:12:00,
2013-02-18 08:27:00,20.7,7.9,30.20,SSE,157,0.0,-999.0,57,-99.99,,,0.00,Acu-Link.com,2013-02-18 13:27:00,
2013-02-18 08:42:00,24.3,8.4,30.20,SW,225,0.0,-999.0,50,-99.99,,,0.00,Acu-Link.com,2013-02-18 13:42:00,
2013-02-18 08:58:00,29.7,10.5,30.19,West,270,1.7,-999.0,44,-99.99,,,0.00,Acu-Link.com,2013-02-18 13:58:00,
2013-02-18 09:13:00,27.5,8.0,30.19,West,270,2.2,-999.0,43,-99.99,,,0.00,Acu-Link.com,2013-02-18 14:13:00,
2013-02-18 09:28:00,25.2,9.6,30.18,SW,225,1.7,-999.0,51,-99.99,,,0.00,Acu-Link.com,2013-02-18 14:28:00,
2013-02-18 09:43:00,26.1,9.6,30.18,WSW,247,2.7,-999.0,49,-99.99,,,0.00,Acu-Link.com,2013-02-18 14:43:00,
2013-02-18 09:58:00,24.3,9.2,30.17,ESE,112,1.7,-999.0,52,-99.99,,,0.00,Acu-Link.com,2013-02-18 14:58:00,
2013-02-18 10:14:00,24.4,9.8,30.18,East,90,3.2,-999.0,53,-99.99,,,0.00,Acu-Link.com,2013-02-18 15:14:00,
2013-02-18 10:29:00,26.2,10.6,30.19,ESE,112,4.7,-999.0,51,-99.99,,,0.00,Acu-Link.com,2013-02-18 15:29:00,
2013-02-18 10:44:00,25.2,10.5,30.18,SSE,157,2.2,-999.0,53,-99.99,,,0.00,Acu-Link.com,2013-02-18 15:44:00,
2013-02-18 10:59:00,26.2,9.7,30.18,SW,225,1.7,-999.0,49,-99.99,,,0.00,Acu-Link.com,2013-02-18 15:59:00,
2013-02-18 11:14:00,28.8,11.1,30.18,SSW,202,2.7,-999.0,47,-99.99,,,0.00,Acu-Link.com,2013-02-18 16:14:00,
2013-02-18 11:30:00,28.2,10.6,30.17,West,270,3.7,-999.0,47,-99.99,,,0.00,Acu-Link.com,2013-02-18 16:30:00,
2013-02-18 11:46:00,30.6,11.3,30.17,SW,225,1.7,-999.0,44,-99.99,,,0.00,Acu-Link.com,2013-02-18 16:46:00,
2013-02-18 12:02:00,29.7,10.5,30.15,West,270,4.2,-999.0,44,-99.99,,,0.00,Acu-Link.com,2013-02-18 17:02:00,
2013-02-18 12:17:00,31.3,10.9,30.15,West,270,3.2,-999.0,42,-99.99,,,0.00,Acu-Link.com,2013-02-18 17:17:00,
2013-02-18 12:32:00,31.8,10.8,30.13,WSW,247,3.2,-999.0,41,-99.99,,,0.00,Acu-Link.com,2013-02-18 17:32:00,
2013-02-18 12:47:00,33.6,11.3,30.13,SW,225,5.3,-999.0,39,-99.99,,,0.00,Acu-Link.com,2013-02-18 17:47:00,
2013-02-18 13:03:00,33.1,12.0,30.12,East,90,3.7,-999.0,41,-99.99,,,0.00,Acu-Link.com,2013-02-18 18:03:00,
2013-02-18 13:18:00,33.1,10.3,30.10,West,270,4.2,-999.0,38,-99.99,,,0.00,Acu-Link.com,2013-02-18 18:18:00,
2013-02-18 13:33:00,34.5,10.3,30.08,SE,135,0.0,-999.0,36,-99.99,,,0.00,Acu-Link.com,2013-02-18 18:33:00,
2013-02-18 13:49:00,33.3,9.9,30.07,ENE,67,6.3,-999.0,37,-99.99,,,0.00,Acu-Link.com,2013-02-18 18:49:00,
2013-02-18 14:04:00,34.5,10.3,30.07,West,270,3.7,-999.0,36,-99.99,,,0.00,Acu-Link.com,2013-02-18 19:04:00,
2013-02-18 14:20:00,34.2,10.1,30.08,ENE,67,4.7,-999.0,36,-99.99,,,0.00,Acu-Link.com,2013-02-18 19:20:00,
2013-02-18 14:35:00,35.2,9.7,30.07,North,0,1.1,-999.0,34,-99.99,,,0.00,Acu-Link.com,2013-02-18 19:35:00,
2013-02-18 14:51:00,35.2,9.0,30.06,South,180,2.2,-999.0,33,-99.99,,,0.00,Acu-Link.com,2013-02-18 19:51:00,
2013-02-18 15:06:00,35.4,7.8,30.07,WSW,247,3.2,-999.0,31,-99.99,,,0.00,Acu-Link.com,2013-02-18 20:06:00,
2013-02-18 15:21:00,35.2,7.6,30.07,WSW,247,3.2,-999.0,31,-99.99,,,0.00,Acu-Link.com,2013-02-18 20:21:00,
2013-02-18 15:36:00,36.1,8.4,30.06,SE,135,3.7,-999.0,31,-99.99,,,0.00,Acu-Link.com,2013-02-18 20:36:00,
2013-02-18 15:52:00,35.6,8.7,30.06,West,270,1.1,-999.0,32,-99.99,,,0.00,Acu-Link.com,2013-02-18 20:52:00,
2013-02-18 16:07:00,35.6,9.4,30.05,West,270,2.7,-999.0,33,-99.99,,,0.00,Acu-Link.com,2013-02-18 21:07:00,
2013-02-18 16:22:00,35.4,10.5,30.06,ESE,112,4.2,-999.0,35,-99.99,,,0.00,Acu-Link.com,2013-02-18 21:22:00,
2013-02-18 16:37:00,36.1,10.5,30.05,ESE,112,2.2,-999.0,34,-99.99,,,0.00,Acu-Link.com,2013-02-18 21:37:00,
2013-02-18 16:52:00,35.6,11.3,30.06,ENE,67,0.0,-999.0,36,-99.99,,,0.00,Acu-Link.com,2013-02-18 21:52:00,
2013-02-18 17:08:00,35.1,11.5,30.06,NNW,337,0.0,-999.0,37,-99.99,,,0.00,Acu-Link.com,2013-02-18 22:08:00,
2013-02-18 17:23:00,33.8,10.9,30.06,NNW,337,0.0,-999.0,38,-99.99,,,0.00,Acu-Link.com,2013-02-18 22:23:00,
2013-02-18 17:38:00,32.5,12.0,30.06,North,0,0.0,-999.0,42,-99.99,,,0.00,Acu-Link.com,2013-02-18 22:38:00,
2013-02-18 17:53:00,31.1,11.2,30.06,East,90,0.0,-999.0,43,-99.99,,,0.00,Acu-Link.com,2013-02-18 22:53:00,
2013-02-18 18:36:00,28.4,10.3,30.04,NW,315,0.0,-999.0,46,-99.99,,,0.00,Acu-Link.com,2013-02-18 23:36:00,
2013-02-18 18:51:00,28.0,11.8,30.03,WNW,292,0.0,-999.0,50,-99.99,,,0.00,Acu-Link.com,2013-02-18 23:51:00,
2013-02-18 19:06:00,27.7,12.0,30.03,West,270,0.0,-999.0,51,-99.99,,,0.00,Acu-Link.com,2013-02-19 00:06:00,
2013-02-18 19:35:00,27.7,12.0,30.03,West,270,0.0,-999.0,51,-99.99,,,0.00,Acu-Link.com,2013-02-19 00:35:00,
2013-02-18 19:50:00,27.1,13.9,30.02,NNW,337,0.0,-999.0,57,-99.99,,,0.00,Acu-Link.com,2013-02-19 00:50:00,
2013-02-18 20:06:00,27.1,13.5,30.03,WNW,292,0.0,-999.0,56,-99.99,,,0.00,Acu-Link.com,2013-02-19 01:06:00,
2013-02-18 20:21:00,27.1,14.3,30.02,NNW,337,0.0,-999.0,58,-99.99,,,0.00,Acu-Link.com,2013-02-19 01:21:00,
2013-02-18 20:36:00,27.1,11.4,30.02,West,270,0.0,-999.0,51,-99.99,,,0.00,Acu-Link.com,2013-02-19 01:36:00,
2013-02-18 20:51:00,27.1,13.5,30.01,WNW,292,0.0,-999.0,56,-99.99,,,0.00,Acu-Link.com,2013-02-19 01:51:00,
2013-02-18 21:06:00,27.1,12.3,30.00,West,270,0.0,-999.0,53,-99.99,,,0.00,Acu-Link.com,2013-02-19 02:06:00,
2013-02-18 21:22:00,27.1,14.3,30.00,North,0,0.0,-999.0,58,-99.99,,,0.00,Acu-Link.com,2013-02-19 02:22:00,
2013-02-18 21:37:00,27.0,15.0,29.99,WNW,292,0.0,-999.0,60,-99.99,,,0.00,Acu-Link.com,2013-02-19 02:37:00,
2013-02-18 21:52:00,26.6,13.8,29.98,WNW,292,0.0,-999.0,58,-99.99,,,0.00,Acu-Link.com,2013-02-19 02:52:00,
2013-02-18 22:07:00,27.0,15.4,29.98,West,270,0.0,-999.0,61,-99.99,,,0.00,Acu-Link.com,2013-02-19 03:07:00,
2013-02-18 22:22:00,26.6,15.0,29.98,NW,315,0.0,-999.0,61,-99.99,,,0.00,Acu-Link.com,2013-02-19 03:22:00,
2013-02-18 23:01:00,26.2,13.1,29.97,NNW,337,0.0,-999.0,57,-99.99,,,0.00,Acu-Link.com,2013-02-19 04:01:00,
2013-02-18 23:17:00,26.6,13.0,29.97,NW,315,0.0,-999.0,56,-99.99,,,0.00,Acu-Link.com,2013-02-19 04:17:00,
2013-02-18 23:32:00,26.4,12.9,29.96,West,270,0.0,-999.0,56,-99.99,,,0.00,Acu-Link.com,2013-02-19 04:32:00,
2013-02-18 23:47:00,26.2,12.7,29.95,NW,315,0.0,-999.0,56,-99.99,,,0.00,Acu-Link.com,2013-02-19 04:47:00,